Find Starlink 34817

NORAD ID: 65362 Int'l Des: 2025-190 Owner: SPXS Country: US Constellation: starlink operational
LEOCIRCULAR

当前视图

正在加载3D地球...

About Starlink 34817

Starlink 34817 (NORAD 65362) is a starlink constellation satellite (v2 mini) launched Aug 28, 2025 by SPXS of US. It operates in LEO, CIRCULAR orbit with a mass of 575.00 kg.

即将过境

Passes for default location (London). Set your location on the main map for personalized predictions.

高度历史

Loading altitude history...

两行轨道根数

1 65362U 25190M 26265.49786865 .00021124 00000-0 63461-3 0 9996
2 65362 53.1611 330.0388 0001296 84.5137 275.6013 15.34398294 59941
Epoch: Sep 22, 2026 • Age: 8 hours

当前状态

高度 465.7 km
远地点 / 近地点 N/A
速度 7.63 km/s
星下点 -10.80°S, 23.08°E
发射日期 Aug 28, 2025
运行时间 1 year
类型 internet

技术详情

分类 Payload
质量 575.00 kg
干质量 530.00 kg
长度 0.30 m
跨度 29.00 m
形状 ? Box + pan
制造商 SPXS
平台类型 Starlink V2MO
阶段状态 In Orbit
所有者/国家 SPXS/US

Most Searched